Wind_Speed
14 19 14 14 14 14 11 11 10 9 8 7 7 6 4 5 6 5 3 3 4 8 10 12 12 12 9 7 8 8 9 10 11 11 11 10 11 11 11 11 9 7 7
13 16 12 13 15 14 13 11 11 10 10 9 8 8 7 7 6 8 8 6 6 7 9 12 14 15 14 11 9 10 11 11 11 11 11 11 12 13 12 11 8 7 7
4 7 10 13 14 13 13 13 13 13 13 13 12 12 12 11 11 11 12 12 12 11 9 11 13 14 16 16 13 10 12 12 12 12 11 11 12 13 12 11 8 8 7
8 6 13 14 14 12 12 14 15 17 17 18 18 17 17 19 18 16 17 17 16 15 15 11 12 13 14 15 15 14 13 13 12 12 12 11 10 11 10 8 9 9 8
10 13 15 20 19 19 16 19 19 19 20 22 24 23 23 24 23 22 21 21 21 21 19 16 12 11 11 13 14 15 15 14 14 14 13 10 10 10 10 9 8 9 7
7 10 14 18 21 23 24 24 27 26 27 28 27 28 29 30 28 30 27 25 28 48 36 17 13 10 11 13 14 14 15 16 16 15 14 11 11 10 10 10 9 8 7
10 9 11 13 16 20 24 28 31 32 33 33 33 33 33 31 33 35 36 34 38 37 23 25 14 9 8 11 14 15 15 15 17 16 14 14 12 11 10 10 11 8 8
15 18 19 19 20 21 22 23 24 27 32 35 36 37 37 37 36 36 31 30 33 21 16 18 19 13 8 7 15 20 19 18 17 17 16 15 14 12 11 10 11 9 10
9 9 11 14 19 22 25 27 28 27 28 31 33 36 38 36 34 35 29 31 28 20 18 18 19 14 14 9 21 24 22 19 18 17 16 15 15 12 11 12 11 11 10
9 11 12 10 12 15 18 22 26 29 29 29 29 31 33 32 31 31 32 32 30 23 21 21 23 20 27 18 16 23 25 21 20 19 16 16 16 14 12 12 12 11 13
20 21 21 22 22 18 17 18 20 23 26 29 29 29 28 28 27 29 31 31 29 27 28 27 24 25 24 27 20 22 24 26 23 23 19 15 16 15 15 13 13 11 11
23 24 26 27 28 30 26 24 23 22 23 23 26 27 27 27 26 27 29 30 30 31 31 29 27 28 29 28 29 24 25 30 28 24 22 15 15 17 15 13 12 12 12
26 26 27 30 33 35 34 30 27 27 26 24 24 24 25 25 26 25 25 28 30 29 29 27 27 29 29 30 27 28 31 32 30 26 23 18 16 19 18 14 13 13 14
29 29 30 32 35 37 39 36 33 30 29 30 28 25 25 25 26 26 26 26 27 28 27 27 28 29 28 26 30 32 33 33 31 27 23 21 21 20 19 17 15 14 16
32 33 35 37 39 42 43 41 36 31 30 30 28 28 28 26 22 24 25 24 25 26 28 30 31 30 33 31 31 31 34 34 33 30 28 26 20 23 22 20 17 16 15
35 38 40 42 44 46 46 39 29 27 28 29 29 29 29 29 27 25 24 25 26 27 29 29 32 32 35 34 32 31 31 29 33 34 30 28 27 27 26 25 22 17 16
40 43 46 47 48 47 37 30 28 24 26 27 29 29 30 31 30 27 26 26 28 29 29 29 31 34 35 34 34 34 31 29 34 36 34 31 28 26 27 27 27 20 17
44 46 48 49 47 38 33 31 30 30 28 25 28 30 30 27 27 27 30 34 35 35 33 31 31 33 37 37 37 36 34 32 35 38 38 32 32 32 32 30 28 23 18
46 45 42 37 33 32 32 32 32 31 31 29 28 28 28 29 32 32 36 36 35 36 38 34 32 34 37 38 40 39 37 37 37 40 39 41 40 40 33 31 29 25 23
29 28 28 28 29 30 32 33 33 33 34 34 34 33 33 33 33 34 36 36 36 36 34 31 30 32 36 39 39 42 42 41 42 42 44 47 46 41 38 33 30 27 24
24 24 25 27 28 30 32 34 36 37 38 38 37 37 37 39 39 38 38 37 35 35 35 34 34 31 28 35 36 34 44 46 44 45 45 45 38 38 37 38 30 28 25
25 26 27 29 31 33 35 38 39 41 43 43 42 42 43 45 45 44 43 39 36 37 38 38 37 36 36 36 31 30 33 40 44 47 48 46 47 41 41 41 32 31 28
28 29 30 32 33 34 36 39 41 43 44 44 44 45 45 46 48 48 48 45 41 41 41 41 42 42 41 42 44 46 43 41 39 40 49 51 51 46 40 41 36 33 31
27 29 30 31 32 35 38 41 43 44 44 42 42 44 44 47 48 48 48 47 46 44 43 44 43 44 44 45 45 45 46 44 41 43 41 46 48 33 39 41 38 32 31
27 28 28 29 32 36 40 41 40 40 39 39 36 35 39 38 36 39 42 41 43 43 42 43 43 42 45 45 48 51 52 54 51 45 49 46 43 39 31 39 37 32 33
22 23 25 29 34 37 36 34 36 37 37 34 29 31 32 32 25 21 24 30 35 38 39 41 44 46 48 48 52 54 54 56 52 47 48 48 39 34 40 38 35 33 31
Wind_Direction
208 229 206 199 203 206 200 199 206 211 213 220 227 240 258 285 290 319 357 331 278 265 263 265 264 263 265 248 239 236 229 232 239 247 252 258 261 268 277 286 297 298 294
19 160 212 217 206 198 195 200 211 216 221 232 246 257 258 270 286 286 296 296 298 286 277 271 262 258 255 257 245 239 233 230 235 242 249 251 260 270 282 289 290 290 291
244 154 211 227 226 213 202 209 220 230 242 248 257 266 272 275 284 291 298 296 300 301 293 286 274 261 253 248 248 248 241 237 233 239 248 260 276 286 289 293 295 285 283
266 221 188 205 216 218 220 225 230 238 244 252 256 259 266 273 277 284 288 285 287 290 293 289 275 261 251 247 245 242 247 242 240 246 255 260 272 280 281 280 277 275 287
259 233 213 208 214 219 224 236 240 242 250 254 258 261 263 268 276 281 278 279 279 280 275 281 281 262 251 241 243 240 240 247 254 254 256 267 271 273 272 269 263 269 288
272 256 243 240 237 237 237 251 241 247 249 253 258 262 263 264 270 270 267 273 294 320 266 247 269 278 255 256 252 238 241 248 255 263 270 267 266 265 269 273 270 266 288
277 271 265 257 250 250 252 252 251 253 255 258 260 261 262 264 265 266 262 257 288 323 269 236 244 257 250 250 256 239 232 246 260 261 261 265 260 255 253 256 260 273 279
270 270 273 270 265 261 260 259 258 257 257 258 260 263 265 266 266 266 267 272 280 298 292 214 238 240 224 262 265 247 234 234 245 257 263 263 260 257 257 257 264 266 265
318 284 270 264 262 260 259 259 259 258 259 260 260 262 265 268 272 276 284 286 289 285 282 262 263 238 223 265 282 257 249 245 251 252 258 264 264 259 258 259 255 260 262
20 26 14 348 321 300 288 277 270 267 266 265 265 266 269 271 271 275 277 280 285 278 273 273 264 251 238 267 265 247 252 248 247 249 254 264 267 269 262 259 260 259 260
1 5 1 1 354 341 326 305 290 281 276 271 269 269 270 270 271 272 271 272 275 273 274 267 261 259 261 265 261 259 246 242 238 245 242 249 260 263 263 262 264 263 269
339 345 344 344 343 344 332 321 311 300 289 281 276 273 272 273 272 269 269 270 269 272 274 268 260 251 259 262 259 253 248 242 237 239 248 244 254 259 260 266 269 269 267
316 323 327 328 331 331 330 321 312 304 298 290 281 276 273 271 272 272 270 269 268 267 269 267 259 253 258 256 252 246 246 242 238 237 241 244 243 251 261 263 264 266 264
302 308 310 313 316 319 322 318 310 303 297 293 291 286 279 276 276 276 272 272 270 264 262 261 260 260 256 249 247 241 245 245 235 232 233 239 242 252 261 260 264 263 262
296 299 300 302 306 311 314 313 308 299 295 294 293 290 289 287 278 272 275 273 270 266 259 255 254 252 250 247 252 254 255 248 235 227 223 231 245 259 261 260 261 266 264
290 292 295 299 303 308 311 307 302 295 296 296 294 291 290 289 283 276 276 278 275 269 264 261 257 254 255 252 251 256 259 255 232 228 224 229 237 248 259 261 259 263 261
289 292 293 297 302 307 304 301 301 293 289 289 286 288 289 287 283 280 279 271 268 266 265 265 263 258 256 253 251 254 258 252 234 230 229 229 236 237 252 261 261 256 256
288 291 295 298 300 299 297 296 297 298 296 291 289 288 288 288 281 274 279 281 275 268 266 267 268 266 263 254 247 249 250 241 228 230 232 229 236 236 234 250 257 257 251
293 293 294 294 295 294 294 296 297 297 297 296 292 289 284 282 280 275 280 280 278 271 266 266 265 265 264 257 248 244 246 238 232 231 233 234 235 237 236 240 247 249 251
298 300 299 297 295 294 296 297 296 294 294 293 290 287 284 279 278 274 276 278 279 275 268 267 264 268 267 260 251 242 244 240 233 235 238 235 245 239 229 230 238 243 247
302 301 300 300 300 299 298 297 296 295 293 290 289 287 282 281 278 276 275 275 274 271 264 259 268 268 265 253 256 248 250 242 240 239 244 243 242 239 229 228 231 238 241
305 304 304 302 300 299 299 299 299 297 296 294 290 286 283 277 275 275 273 272 266 264 264 259 258 263 264 260 255 251 254 247 247 241 241 239 245 237 233 227 222 230 235
302 301 301 301 302 303 303 303 303 302 299 298 296 292 286 281 275 271 269 267 262 259 260 259 258 259 260 260 256 254 253 255 257 245 249 245 243 256 246 219 220 223 230
302 302 304 306 307 307 308 307 306 305 305 303 298 295 293 288 278 270 264 262 260 257 258 256 260 260 257 257 257 251 250 254 255 249 245 242 249 238 227 218 217 219 226
305 307 310 313 314 315 314 317 316 311 310 309 305 299 307 306 288 273 262 257 255 254 257 256 260 259 259 256 261 257 255 255 251 252 241 233 231 235 222 212 215 216 219
317 320 320 321 321 323 324 322 323 318 318 313 307 307 313 317 308 288 270 260 254 253 258 264 263 265 263 259 262 261 255 251 248 242 237 232 219 219 207 206 212 215 219
Height
3213 3212 3215 3216 3217 3217 3218 3219 3220 3221 3222 3223 3222 3222 3222 3222 3221 3221 3220 3219 3218 3217 3217 3216 3216 3217 3217 3217 3217 3217 3217 3217 3218 3218 3219 3219 3218 3218 3217 3216 3216 3216 3215
3203 3210 3214 3215 3215 3215 3216 3217 3218 3219 3220 3220 3221 3220 3220 3220 3220 3219 3219 3218 3218 3217 3215 3213 3212 3213 3213 3215 3215 3214 3214 3214 3214 3215 3215 3215 3215 3215 3214 3214 3214 3213 3213
3210 3211 3211 3214 3214 3215 3214 3215 3216 3217 3217 3217 3218 3218 3218 3218 3217 3217 3217 3217 3216 3215 3213 3211 3209 3208 3208 3210 3212 3212 3212 3211 3211 3211 3211 3211 3211 3211 3211 3211 3211 3211 3210
3206 3208 3209 3211 3212 3213 3213 3213 3213 3213 3213 3214 3214 3214 3214 3213 3213 3213 3213 3213 3212 3213 3212 3209 3207 3205 3204 3204 3206 3207 3208 3209 3208 3208 3208 3208 3208 3207 3208 3208 3208 3208 3208
3205 3205 3207 3207 3207 3207 3209 3209 3209 3208 3209 3209 3208 3209 3209 3208 3208 3209 3209 3208 3207 3207 3207 3206 3203 3201 3200 3200 3201 3202 3203 3204 3204 3204 3204 3204 3204 3204 3204 3204 3205 3205 3204
3201 3202 3202 3202 3202 3203 3204 3203 3204 3203 3204 3203 3203 3203 3202 3202 3204 3202 3200 3199 3199 3193 3178 3194 3198 3196 3195 3196 3198 3198 3199 3199 3200 3200 3201 3201 3201 3201 3201 3201 3201 3201 3200
3198 3198 3198 3198 3197 3197 3197 3196 3197 3197 3197 3196 3196 3196 3195 3195 3194 3193 3190 3190 3192 3187 3174 3177 3190 3190 3190 3191 3194 3194 3194 3195 3197 3197 3197 3198 3197 3197 3196 3196 3196 3196 3196
3195 3193 3193 3192 3192 3191 3190 3190 3189 3188 3188 3188 3188 3187 3187 3188 3186 3183 3177 3170 3184 3185 3184 3182 3182 3185 3186 3187 3189 3190 3189 3189 3190 3192 3193 3193 3193 3193 3193 3193 3193 3193 3194
3188 3188 3187 3186 3185 3184 3183 3182 3182 3181 3180 3179 3180 3179 3178 3178 3178 3174 3173 3173 3177 3178 3177 3178 3180 3181 3181 3182 3184 3186 3185 3185 3186 3186 3188 3188 3189 3188 3188 3189 3189 3190 3190
3186 3185 3183 3182 3180 3179 3177 3176 3174 3173 3173 3172 3172 3171 3170 3169 3171 3170 3167 3166 3165 3168 3171 3173 3175 3175 3175 3175 3176 3179 3180 3180 3181 3182 3182 3184 3185 3184 3184 3184 3186 3186 3187
3184 3183 3181 3179 3177 3175 3172 3170 3168 3166 3165 3164 3164 3163 3163 3162 3162 3162 3161 3161 3161 3160 3161 3164 3164 3168 3169 3168 3170 3172 3174 3174 3175 3177 3176 3178 3181 3181 3180 3180 3180 3181 3182
3181 3179 3176 3174 3172 3170 3167 3164 3161 3159 3157 3156 3155 3155 3154 3154 3155 3155 3154 3153 3154 3155 3156 3157 3159 3160 3161 3161 3161 3163 3165 3167 3169 3171 3174 3173 3176 3176 3176 3176 3176 3176 3177
3176 3174 3172 3169 3167 3164 3161 3159 3156 3153 3150 3148 3146 3146 3146 3146 3146 3146 3147 3146 3146 3146 3147 3149 3151 3152 3152 3152 3153 3155 3156 3158 3162 3165 3168 3169 3170 3171 3171 3171 3171 3171 3172
3171 3170 3167 3164 3161 3158 3155 3152 3149 3145 3143 3140 3139 3138 3137 3137 3136 3137 3136 3137 3136 3137 3139 3140 3142 3143 3142 3144 3145 3145 3147 3150 3154 3156 3160 3163 3163 3164 3166 3166 3166 3166 3167
3165 3162 3159 3156 3153 3150 3147 3143 3138 3136 3133 3132 3131 3129 3128 3129 3128 3126 3126 3127 3127 3127 3128 3130 3131 3132 3133 3134 3136 3137 3139 3141 3144 3148 3151 3153 3156 3159 3160 3161 3160 3161 3162
3157 3154 3151 3148 3145 3140 3135 3131 3129 3127 3125 3123 3121 3120 3120 3120 3119 3119 3118 3117 3117 3117 3117 3119 3120 3121 3123 3125 3126 3128 3129 3131 3135 3140 3143 3146 3149 3152 3154 3156 3155 3155 3156
3148 3145 3141 3138 3134 3131 3126 3122 3119 3119 3117 3115 3113 3111 3110 3110 3110 3110 3110 3109 3107 3106 3107 3109 3111 3111 3113 3115 3117 3118 3119 3122 3127 3130 3134 3137 3140 3143 3146 3149 3150 3149 3150
3139 3135 3131 3127 3123 3120 3117 3114 3112 3109 3108 3107 3104 3102 3101 3100 3099 3099 3099 3097 3097 3097 3098 3099 3100 3102 3102 3104 3106 3108 3110 3112 3115 3120 3124 3127 3130 3132 3135 3140 3143 3144 3144
3127 3124 3120 3117 3114 3111 3109 3106 3103 3101 3099 3097 3096 3095 3092 3090 3089 3088 3087 3085 3085 3085 3086 3087 3088 3089 3090 3092 3095 3097 3099 3102 3106 3109 3113 3116 3120 3121 3124 3131 3134 3136 3137
3118 3114 3112 3109 3106 3104 3100 3098 3095 3092 3089 3087 3085 3084 3082 3080 3078 3076 3075 3073 3072 3072 3073 3074 3075 3077 3077 3079 3081 3085 3088 3090 3094 3097 3101 3103 3107 3111 3115 3120 3126 3128 3130
3111 3108 3105 3102 3099 3095 3092 3089 3085 3082 3079 3076 3074 3072 3070 3065 3064 3063 3062 3061 3061 3060 3062 3063 3064 3064 3065 3066 3070 3072 3075 3079 3082 3087 3089 3093 3096 3099 3105 3110 3116 3120 3122
3104 3101 3098 3094 3091 3087 3083 3079 3075 3071 3067 3063 3061 3059 3056 3052 3050 3048 3047 3048 3048 3048 3048 3050 3051 3053 3054 3057 3059 3062 3063 3066 3070 3074 3077 3082 3083 3087 3092 3098 3104 3111 3114
3096 3093 3090 3086 3082 3078 3074 3069 3065 3059 3055 3050 3045 3041 3038 3034 3032 3031 3030 3032 3033 3034 3034 3035 3037 3039 3041 3043 3045 3049 3051 3055 3059 3062 3066 3069 3073 3079 3079 3088 3094 3101 3106
3089 3085 3082 3079 3075 3070 3065 3059 3054 3047 3040 3035 3030 3025 3020 3015 3011 3010 3012 3013 3015 3018 3019 3020 3022 3024 3026 3028 3029 3034 3037 3040 3045 3050 3053 3057 3063 3067 3072 3077 3084 3092 3098
3082 3079 3075 3071 3067 3062 3056 3049 3042 3035 3028 3021 3016 3011 3006 2999 2992 2990 2992 2995 2998 3001 3004 3006 3007 3008 3009 3012 3014 3016 3020 3025 3028 3035 3039 3044 3051 3058 3062 3069 3077 3084 3089
3076 3073 3069 3065 3060 3054 3048 3041 3034 3027 3019 3012 3006 3001 2996 2990 2984 2982 2982 2983 2985 2988 2990 2991 2991 2992 2992 2992 2993 2996 2998 3003 3009 3017 3024 3031 3034 3047 3052 3060 3070 3076 3081